Time,TemperatureF,DewpointF,PressureIn,WindDirection,WindDirectionDegrees,WindSpeedMPH,WindSpeedGustMPH,Humidity,HourlyPrecipIn,Conditions,Clouds,dailyrainin,SoftwareType,DateUTC
2013-03-07 00:00:00,39.0,31.7,30.11,West,276,0.0,0.0,75,0.00,,,0.00,Wunderground v.1.15,2013-03-07 05:00:00,
2013-03-07 00:05:00,38.8,31.6,30.12,West,276,0.0,0.0,75,0.00,,,0.00,Wunderground v.1.15,2013-03-07 05:05:00,
2013-03-07 00:10:00,38.7,31.8,30.12,West,277,0.0,0.0,76,0.00,,,0.00,Wunderground v.1.15,2013-03-07 05:10:00,
2013-03-07 00:15:00,38.7,31.8,30.12,West,277,0.0,0.0,76,0.00,,,0.00,Wunderground v.1.15,2013-03-07 05:15:00,
2013-03-07 00:20:00,38.6,32.0,30.11,West,276,0.0,0.0,77,0.00,,,0.00,Wunderground v.1.15,2013-03-07 05:20:00,
2013-03-07 00:25:00,38.3,31.7,30.11,West,277,0.0,0.0,77,0.00,,,0.00,Wunderground v.1.15,2013-03-07 05:25:00,
2013-03-07 00:30:00,38.0,31.4,30.11,West,276,0.0,0.0,77,0.00,,,0.00,Wunderground v.1.15,2013-03-07 05:30:00,
2013-03-07 00:35:00,37.8,31.2,30.11,West,277,0.0,0.0,77,0.00,,,0.00,Wunderground v.1.15,2013-03-07 05:35:00,
2013-03-07 00:40:00,37.6,31.0,30.11,West,277,0.0,0.0,77,0.00,,,0.00,Wunderground v.1.15,2013-03-07 05:40:00,
2013-03-07 00:45:00,37.5,30.9,30.11,West,276,0.0,0.0,77,0.00,,,0.00,Wunderground v.1.15,2013-03-07 05:45:00,
2013-03-07 00:50:00,37.4,31.2,30.11,West,276,0.0,0.0,78,0.00,,,0.00,Wunderground v.1.15,2013-03-07 05:50:00,
2013-03-07 00:55:00,37.4,31.2,30.11,West,277,0.0,0.0,78,0.00,,,0.00,Wunderground v.1.15,2013-03-07 05:55:00,
2013-03-07 01:00:00,37.2,31.3,30.11,West,276,0.0,0.0,79,0.00,,,0.00,Wunderground v.1.15,2013-03-07 06:00:00,
2013-03-07 01:05:00,36.9,31.0,30.11,West,277,0.0,0.0,79,0.00,,,0.00,Wunderground v.1.15,2013-03-07 06:05:00,
2013-03-07 01:15:00,36.4,30.8,30.12,West,277,0.0,0.0,80,0.00,,,0.00,Wunderground v.1.15,2013-03-07 06:15:00,
2013-03-07 01:20:00,36.3,30.7,30.11,West,276,0.0,0.0,80,0.00,,,0.00,Wunderground v.1.15,2013-03-07 06:20:00,
2013-03-07 01:25:00,36.4,30.8,30.11,West,277,0.0,0.0,80,0.00,,,0.00,Wunderground v.1.15,2013-03-07 06:25:00,
2013-03-07 01:30:00,36.4,30.8,30.11,West,276,0.0,0.0,80,0.00,,,0.00,Wunderground v.1.15,2013-03-07 06:30:00,
2013-03-07 01:35:00,36.5,30.9,30.11,West,276,0.0,0.0,80,0.00,,,0.00,Wunderground v.1.15,2013-03-07 06:35:00,
2013-03-07 01:40:00,36.5,30.9,30.11,West,276,0.0,0.0,80,0.00,,,0.00,Wunderground v.1.15,2013-03-07 06:40:00,
2013-03-07 01:45:00,36.5,30.9,30.11,West,277,0.0,0.0,80,0.00,,,0.00,Wunderground v.1.15,2013-03-07 06:45:00,
2013-03-07 01:50:00,36.4,30.8,30.11,West,277,0.0,0.0,80,0.00,,,0.00,Wunderground v.1.15,2013-03-07 06:50:00,
2013-03-07 02:00:00,36.2,30.6,30.11,West,277,0.0,0.0,80,0.00,,,0.00,Wunderground v.1.15,2013-03-07 07:00:00,
2013-03-07 02:05:00,36.1,30.5,30.11,West,277,0.0,0.0,80,0.00,,,0.00,Wunderground v.1.15,2013-03-07 07:05:00,
2013-03-07 02:10:00,36.1,30.8,30.11,West,277,0.0,0.0,81,0.00,,,0.00,Wunderground v.1.15,2013-03-07 07:10:00,
2013-03-07 02:15:00,36.3,31.0,30.11,West,277,0.0,0.0,81,0.00,,,0.00,Wunderground v.1.15,2013-03-07 07:15:00,
2013-03-07 02:20:00,36.5,31.2,30.10,West,277,0.0,0.0,81,0.00,,,0.00,Wunderground v.1.15,2013-03-07 07:20:00,
2013-03-07 02:25:00,36.7,31.1,30.11,West,276,0.0,0.0,80,0.00,,,0.00,Wunderground v.1.15,2013-03-07 07:25:00,
2013-03-07 02:35:00,36.9,31.3,30.11,West,277,0.0,0.0,80,0.00,,,0.00,Wunderground v.1.15,2013-03-07 07:35:00,
2013-03-07 02:40:00,37.0,31.4,30.11,West,276,0.0,0.0,80,0.00,,,0.00,Wunderground v.1.15,2013-03-07 07:40:00,
2013-03-07 02:50:00,36.7,30.8,30.10,West,277,0.0,0.0,79,0.00,,,0.00,Wunderground v.1.15,2013-03-07 07:50:00,
2013-03-07 03:00:00,36.4,30.8,30.10,West,277,0.0,0.0,80,0.00,,,0.00,Wunderground v.1.15,2013-03-07 08:00:00,
2013-03-07 03:05:00,36.4,30.8,30.11,West,276,0.0,0.0,80,0.00,,,0.00,Wunderground v.1.15,2013-03-07 08:05:00,
2013-03-07 03:10:00,36.5,30.9,30.11,West,276,0.0,0.0,80,0.00,,,0.00,Wunderground v.1.15,2013-03-07 08:10:00,
2013-03-07 03:20:00,36.3,30.7,30.10,West,276,0.0,0.0,80,0.00,,,0.00,Wunderground v.1.15,2013-03-07 08:20:00,
2013-03-07 03:25:00,36.1,30.5,30.10,West,276,0.0,0.0,80,0.00,,,0.00,Wunderground v.1.15,2013-03-07 08:25:00,
2013-03-07 03:30:00,35.8,30.2,30.10,West,277,0.0,0.0,80,0.00,,,0.00,Wunderground v.1.15,2013-03-07 08:30:00,
2013-03-07 03:35:00,35.6,30.0,30.10,West,277,0.0,0.0,80,0.00,,,0.00,Wunderground v.1.15,2013-03-07 08:35:00,
2013-03-07 03:40:00,35.3,29.7,30.10,West,276,0.0,0.0,80,0.00,,,0.00,Wunderground v.1.15,2013-03-07 08:40:00,
2013-03-07 03:45:00,35.1,29.9,30.10,West,276,0.0,0.0,81,0.00,,,0.00,Wunderground v.1.15,2013-03-07 08:45:00,
2013-03-07 03:50:00,35.0,29.8,30.10,West,277,0.0,0.0,81,0.00,,,0.00,Wunderground v.1.15,2013-03-07 08:50:00,
2013-03-07 03:55:00,34.8,29.6,30.10,West,276,0.0,0.0,81,0.00,,,0.00,Wunderground v.1.15,2013-03-07 08:55:00,
2013-03-07 04:05:00,34.4,29.2,30.11,West,276,0.0,0.0,81,0.00,,,0.00,Wunderground v.1.15,2013-03-07 09:05:00,
2013-03-07 04:10:00,34.2,29.0,30.11,West,276,0.0,0.0,81,0.00,,,0.00,Wunderground v.1.15,2013-03-07 09:10:00,
2013-03-07 04:15:00,33.9,29.0,30.11,West,276,0.0,0.0,82,0.00,,,0.00,Wunderground v.1.15,2013-03-07 09:15:00,
2013-03-07 04:20:00,33.7,28.8,30.11,West,277,0.0,0.0,82,0.00,,,0.00,Wunderground v.1.15,2013-03-07 09:20:00,
2013-03-07 04:25:00,33.8,29.2,30.11,West,277,0.0,0.0,83,0.00,,,0.00,Wunderground v.1.15,2013-03-07 09:25:00,
2013-03-07 04:30:00,34.0,29.4,30.11,West,277,0.0,0.0,83,0.00,,,0.00,Wunderground v.1.15,2013-03-07 09:30:00,
2013-03-07 04:40:00,34.7,30.4,30.12,West,277,0.0,0.0,84,0.00,,,0.00,Wunderground v.1.15,2013-03-07 09:40:00,
2013-03-07 04:45:00,35.2,30.9,30.12,West,277,0.0,1.0,84,0.00,,,0.00,Wunderground v.1.15,2013-03-07 09:45:00,
2013-03-07 04:50:00,35.4,30.8,30.12,West,277,0.0,1.0,83,0.00,,,0.00,Wunderground v.1.15,2013-03-07 09:50:00,
2013-03-07 04:55:00,35.5,30.8,30.12,West,277,0.0,1.0,83,0.00,,,0.00,Wunderground v.1.15,2013-03-07 09:55:00,
2013-03-07 05:00:00,35.6,30.9,30.12,West,277,1.0,1.0,83,0.00,,,0.00,Wunderground v.1.15,2013-03-07 10:00:00,
2013-03-07 05:05:00,35.5,30.5,30.12,West,277,0.0,1.0,82,0.00,,,0.00,Wunderground v.1.15,2013-03-07 10:05:00,
2013-03-07 05:15:00,34.9,30.0,30.12,West,277,0.0,0.0,82,0.00,,,0.00,Wunderground v.1.15,2013-03-07 10:15:00,
2013-03-07 05:25:00,34.8,30.2,30.12,West,277,1.0,1.0,83,0.00,,,0.00,Wunderground v.1.15,2013-03-07 10:25:00,
2013-03-07 05:30:00,35.0,30.7,30.13,West,277,1.0,1.0,84,0.00,,,0.00,Wunderground v.1.15,2013-03-07 10:30:00,
2013-03-07 05:35:00,35.3,30.7,30.13,West,277,1.0,1.0,83,0.00,,,0.00,Wunderground v.1.15,2013-03-07 10:35:00,
2013-03-07 05:45:00,35.3,30.7,30.14,West,277,0.0,1.0,83,0.00,,,0.00,Wunderground v.1.15,2013-03-07 10:45:00,
2013-03-07 05:55:00,34.8,30.2,30.14,West,277,0.0,0.0,83,0.00,,,0.00,Wunderground v.1.15,2013-03-07 10:55:00,
2013-03-07 06:00:00,34.4,29.8,30.14,West,277,0.0,0.0,83,0.00,,,0.00,Wunderground v.1.15,2013-03-07 11:00:00,
2013-03-07 06:05:00,34.2,29.3,30.15,West,277,0.0,0.0,82,0.00,,,0.00,Wunderground v.1.15,2013-03-07 11:05:00,
2013-03-07 06:10:00,33.8,29.2,30.15,West,277,0.0,0.0,83,0.00,,,0.00,Wunderground v.1.15,2013-03-07 11:10:00,
2013-03-07 06:15:00,33.4,28.8,30.15,West,277,0.0,0.0,83,0.00,,,0.00,Wunderground v.1.15,2013-03-07 11:15:00,
2013-03-07 06:20:00,33.2,28.6,30.15,West,277,0.0,0.0,83,0.00,,,0.00,Wunderground v.1.15,2013-03-07 11:20:00,
2013-03-07 06:25:00,33.2,28.9,30.15,West,277,0.0,0.0,84,0.00,,,0.00,Wunderground v.1.15,2013-03-07 11:25:00,
2013-03-07 06:30:00,33.2,28.9,30.14,West,277,0.0,1.0,84,0.00,,,0.00,Wunderground v.1.15,2013-03-07 11:30:00,
2013-03-07 06:35:00,33.5,29.5,30.15,West,277,0.0,3.0,85,0.00,,,0.00,Wunderground v.1.15,2013-03-07 11:35:00,
2013-03-07 06:40:00,33.9,29.9,30.15,West,277,1.0,1.0,85,0.00,,,0.00,Wunderground v.1.15,2013-03-07 11:40:00,
2013-03-07 06:50:00,34.4,30.4,30.15,West,277,0.0,0.0,85,0.00,,,0.00,Wunderground v.1.15,2013-03-07 11:50:00,
2013-03-07 06:55:00,34.4,30.4,30.16,West,277,0.0,0.0,85,0.00,,,0.00,Wunderground v.1.15,2013-03-07 11:55:00,
2013-03-07 07:00:00,34.4,30.1,30.16,West,277,0.0,0.0,84,0.00,,,0.00,Wunderground v.1.15,2013-03-07 12:00:00,
2013-03-07 07:05:00,34.4,30.4,30.16,West,277,0.0,0.0,85,0.00,,,0.00,Wunderground v.1.15,2013-03-07 12:05:00,
2013-03-07 07:10:00,34.5,30.5,30.17,West,277,0.0,0.0,85,0.00,,,0.00,Wunderground v.1.15,2013-03-07 12:10:00,
2013-03-07 07:15:00,35.0,30.9,30.17,West,277,0.0,0.0,85,0.00,,,0.00,Wunderground v.1.15,2013-03-07 12:15:00,
2013-03-07 07:20:00,35.6,31.5,30.17,West,277,0.0,2.0,85,0.00,,,0.00,Wunderground v.1.15,2013-03-07 12:20:00,
2013-03-07 07:25:00,36.3,32.5,30.17,West,277,0.0,2.0,86,0.00,,,0.00,Wunderground v.1.15,2013-03-07 12:25:00,
2013-03-07 07:30:00,37.1,33.0,30.17,West,277,1.0,2.0,85,0.00,,,0.00,Wunderground v.1.15,2013-03-07 12:30:00,
2013-03-07 07:35:00,37.9,33.8,30.17,West,277,1.0,2.0,85,0.00,,,0.00,Wunderground v.1.15,2013-03-07 12:35:00,
2013-03-07 07:45:00,39.6,35.2,30.18,West,277,2.0,2.0,84,0.00,,,0.00,Wunderground v.1.15,2013-03-07 12:45:00,
2013-03-07 07:50:00,40.4,35.6,30.17,WNW,286,2.0,5.0,83,0.00,,,0.00,Wunderground v.1.15,2013-03-07 12:50:00,
2013-03-07 07:55:00,41.1,36.0,30.17,WNW,290,3.0,5.0,82,0.00,,,0.00,Wunderground v.1.15,2013-03-07 12:55:00,
2013-03-07 08:00:00,41.9,36.5,30.18,WNW,295,3.0,5.0,81,0.00,,,0.00,Wunderground v.1.15,2013-03-07 13:00:00,
2013-03-07 08:05:00,42.6,36.5,30.18,NW,310,3.0,5.0,79,0.00,,,0.00,Wunderground v.1.15,2013-03-07 13:05:00,
2013-03-07 08:10:00,43.3,36.9,30.18,NW,317,3.0,3.0,78,0.00,,,0.00,Wunderground v.1.15,2013-03-07 13:10:00,
2013-03-07 08:15:00,43.9,37.2,30.18,NNW,331,3.0,4.0,77,0.00,,,0.00,Wunderground v.1.15,2013-03-07 13:15:00,
2013-03-07 08:20:00,44.5,37.1,30.18,NW,322,4.0,4.0,75,0.00,,,0.00,Wunderground v.1.15,2013-03-07 13:20:00,
2013-03-07 08:25:00,45.0,37.2,30.18,NNW,329,4.0,5.0,74,0.00,,,0.00,Wunderground v.1.15,2013-03-07 13:25:00,
2013-03-07 08:30:00,45.5,37.3,30.18,NNW,329,4.0,4.0,73,0.00,,,0.00,Wunderground v.1.15,2013-03-07 13:30:00,
2013-03-07 08:35:00,46.0,37.1,30.18,NNW,329,4.0,5.0,71,0.00,,,0.00,Wunderground v.1.15,2013-03-07 13:35:00,
2013-03-07 08:40:00,46.5,37.2,30.18,NNW,332,5.0,6.0,70,0.00,,,0.00,Wunderground v.1.15,2013-03-07 13:40:00,
2013-03-07 08:45:00,47.1,37.1,30.18,NW,323,5.0,6.0,68,0.00,,,0.00,Wunderground v.1.15,2013-03-07 13:45:00,
2013-03-07 08:50:00,47.7,36.5,30.18,North,355,5.0,7.0,65,0.00,,,0.00,Wunderground v.1.15,2013-03-07 13:50:00,
2013-03-07 08:55:00,48.1,36.5,30.18,North,5,6.0,9.0,64,0.00,,,0.00,Wunderground v.1.15,2013-03-07 13:55:00,
2013-03-07 09:00:00,48.5,36.5,30.18,NNW,337,6.0,6.0,63,0.00,,,0.00,Wunderground v.1.15,2013-03-07 14:00:00,
2013-03-07 09:05:00,48.8,36.4,30.18,NNW,341,6.0,6.0,62,0.00,,,0.00,Wunderground v.1.15,2013-03-07 14:05:00,
2013-03-07 09:15:00,50.1,37.2,30.19,North,355,5.0,6.0,61,0.00,,,0.00,Wunderground v.1.15,2013-03-07 14:15:00,
2013-03-07 09:20:00,50.1,36.7,30.19,NNW,345,6.0,6.0,60,0.00,,,0.00,Wunderground v.1.15,2013-03-07 14:20:00,
2013-03-07 09:25:00,50.4,37.0,30.19,NNW,342,5.0,6.0,60,0.00,,,0.00,Wunderground v.1.15,2013-03-07 14:25:00,
2013-03-07 09:35:00,51.2,37.8,30.19,NNW,336,5.0,6.0,60,0.00,,,0.00,Wunderground v.1.15,2013-03-07 14:35:00,
2013-03-07 09:40:00,51.5,38.1,30.19,North,355,5.0,6.0,60,0.00,,,0.00,Wunderground v.1.15,2013-03-07 14:40:00,
2013-03-07 09:45:00,51.4,38.0,30.20,North,349,6.0,6.0,60,0.00,,,0.00,Wunderground v.1.15,2013-03-07 14:45:00,
2013-03-07 09:50:00,51.8,38.3,30.19,North,355,6.0,6.0,60,0.00,,,0.00,Wunderground v.1.15,2013-03-07 14:50:00,
2013-03-07 09:55:00,51.7,38.3,30.19,NNW,334,6.0,6.0,60,0.00,,,0.00,Wunderground v.1.15,2013-03-07 14:55:00,
2013-03-07 10:00:00,52.6,39.1,30.19,North,350,5.0,5.0,60,0.00,,,0.00,Wunderground v.1.15,2013-03-07 15:00:00,
2013-03-07 10:05:00,53.2,39.7,30.20,NNW,346,6.0,7.0,60,0.00,,,0.00,Wunderground v.1.15,2013-03-07 15:05:00,
2013-03-07 10:10:00,53.3,39.3,30.20,North,360,6.0,7.0,59,0.00,,,0.00,Wunderground v.1.15,2013-03-07 15:10:00,
2013-03-07 10:15:00,53.7,39.7,30.20,NW,323,6.0,7.0,59,0.00,,,0.00,Wunderground v.1.15,2013-03-07 15:15:00,
2013-03-07 10:25:00,54.0,40.0,30.20,NW,325,6.0,6.0,59,0.00,,,0.00,Wunderground v.1.15,2013-03-07 15:25:00,
2013-03-07 10:30:00,54.8,40.3,30.20,North,355,5.0,6.0,58,0.00,,,0.00,Wunderground v.1.15,2013-03-07 15:30:00,
2013-03-07 10:35:00,55.3,40.8,30.20,NNW,333,5.0,6.0,58,0.00,,,0.00,Wunderground v.1.15,2013-03-07 15:35:00,
2013-03-07 10:45:00,55.8,40.8,30.20,North,10,5.0,8.0,57,0.00,,,0.00,Wunderground v.1.15,2013-03-07 15:45:00,
2013-03-07 10:50:00,56.0,41.0,30.20,North,360,5.0,5.0,57,0.00,,,0.00,Wunderground v.1.15,2013-03-07 15:50:00,
2013-03-07 10:55:00,55.9,40.9,30.20,North,5,4.0,6.0,57,0.00,,,0.00,Wunderground v.1.15,2013-03-07 15:55:00,
2013-03-07 11:00:00,56.1,40.6,30.20,NNW,340,5.0,5.0,56,0.00,,,0.00,Wunderground v.1.15,2013-03-07 16:00:00,
2013-03-07 11:05:00,56.3,40.3,30.20,North,10,5.0,6.0,55,0.00,,,0.00,Wunderground v.1.15,2013-03-07 16:05:00,
2013-03-07 11:15:00,56.9,39.9,30.20,North,5,5.0,7.0,53,0.00,,,0.00,Wunderground v.1.15,2013-03-07 16:15:00,
2013-03-07 11:20:00,56.9,40.4,30.20,North,355,5.0,5.0,54,0.00,,,0.00,Wunderground v.1.15,2013-03-07 16:20:00,
2013-03-07 11:25:00,57.2,40.2,30.20,North,5,4.0,5.0,53,0.00,,,0.00,Wunderground v.1.15,2013-03-07 16:25:00,
2013-03-07 11:30:00,57.7,40.7,30.19,North,360,5.0,5.0,53,0.00,,,0.00,Wunderground v.1.15,2013-03-07 16:30:00,
2013-03-07 11:35:00,58.1,40.6,30.19,NNW,344,5.0,5.0,52,0.00,,,0.00,Wunderground v.1.15,2013-03-07 16:35:00,
2013-03-07 11:40:00,59.0,41.4,30.19,North,349,3.0,6.0,52,0.00,,,0.00,Wunderground v.1.15,2013-03-07 16:40:00,
2013-03-07 11:45:00,59.1,40.5,30.19,NNW,340,4.0,6.0,50,0.00,,,0.00,Wunderground v.1.15,2013-03-07 16:45:00,
2013-03-07 11:50:00,59.9,41.2,30.19,NNW,331,4.0,4.0,50,0.00,,,0.00,Wunderground v.1.15,2013-03-07 16:50:00,
2013-03-07 11:55:00,60.6,41.8,30.19,NNW,329,4.0,4.0,50,0.00,,,0.00,Wunderground v.1.15,2013-03-07 16:55:00,
2013-03-07 12:00:00,60.9,41.1,30.18,NW,325,3.0,4.0,48,0.00,,,0.00,Wunderground v.1.15,2013-03-07 17:00:00,
2013-03-07 12:05:00,61.0,41.2,30.18,NNW,344,3.0,5.0,48,0.00,,,0.00,Wunderground v.1.15,2013-03-07 17:05:00,
2013-03-07 12:15:00,61.5,41.6,30.17,NNW,333,3.0,3.0,48,0.00,,,0.00,Wunderground v.1.15,2013-03-07 17:15:00,
2013-03-07 12:20:00,61.6,40.6,30.17,NW,326,2.0,3.0,46,0.00,,,0.00,Wunderground v.1.15,2013-03-07 17:20:00,
2013-03-07 12:30:00,61.4,41.0,30.16,NNW,336,2.0,3.0,47,0.00,,,0.00,Wunderground v.1.15,2013-03-07 17:30:00,
2013-03-07 12:35:00,61.9,41.4,30.15,NW,307,3.0,5.0,47,0.00,,,0.00,Wunderground v.1.15,2013-03-07 17:35:00,
2013-03-07 12:45:00,62.8,41.7,30.16,NNW,340,2.0,3.0,46,0.00,,,0.00,Wunderground v.1.15,2013-03-07 17:45:00,
2013-03-07 12:50:00,62.8,41.7,30.16,NNW,342,2.0,3.0,46,0.00,,,0.00,Wunderground v.1.15,2013-03-07 17:50:00,
2013-03-07 12:55:00,62.8,42.3,30.15,NNW,337,3.0,3.0,47,0.00,,,0.00,Wunderground v.1.15,2013-03-07 17:55:00,
2013-03-07 13:00:00,63.8,42.6,30.16,NNW,345,3.0,3.0,46,0.00,,,0.00,Wunderground v.1.15,2013-03-07 18:00:00,
2013-03-07 13:05:00,64.3,42.5,30.16,WNW,288,4.0,4.0,45,0.00,,,0.00,Wunderground v.1.15,2013-03-07 18:05:00,
2013-03-07 13:10:00,64.9,42.5,30.16,NW,309,4.0,4.0,44,0.00,,,0.00,Wunderground v.1.15,2013-03-07 18:10:00,
2013-03-07 13:20:00,64.4,42.6,30.15,North,360,2.0,2.0,45,0.00,,,0.00,Wunderground v.1.15,2013-03-07 18:20:00,
2013-03-07 13:30:00,64.8,42.4,30.14,NNW,338,3.0,3.0,44,0.00,,,0.00,Wunderground v.1.15,2013-03-07 18:30:00,
2013-03-07 13:35:00,65.6,41.9,30.14,North,10,3.0,10.0,42,0.00,,,0.00,Wunderground v.1.15,2013-03-07 18:35:00,
2013-03-07 13:40:00,65.5,41.2,30.13,NNW,329,3.0,3.0,41,0.00,,,0.00,Wunderground v.1.15,2013-03-07 18:40:00,
2013-03-07 13:50:00,66.1,41.7,30.13,NNW,341,3.0,3.0,41,0.00,,,0.00,Wunderground v.1.15,2013-03-07 18:50:00,
2013-03-07 13:55:00,66.1,41.7,30.13,NNW,345,3.0,4.0,41,0.00,,,0.00,Wunderground v.1.15,2013-03-07 18:55:00,
2013-03-07 14:00:00,66.7,41.6,30.13,NNW,346,3.0,8.0,40,0.00,,,0.00,Wunderground v.1.15,2013-03-07 19:00:00,
2013-03-07 14:05:00,66.7,41.6,30.13,North,355,4.0,8.0,40,0.00,,,0.00,Wunderground v.1.15,2013-03-07 19:05:00,
2013-03-07 14:10:00,66.5,40.8,30.13,NNW,342,4.0,4.0,39,0.00,,,0.00,Wunderground v.1.15,2013-03-07 19:10:00,
2013-03-07 14:15:00,66.7,41.6,30.13,NNW,345,3.0,4.0,40,0.00,,,0.00,Wunderground v.1.15,2013-03-07 19:15:00,
2013-03-07 14:20:00,67.0,41.9,30.13,NNW,345,2.0,3.0,40,0.00,,,0.00,Wunderground v.1.15,2013-03-07 19:20:00,
2013-03-07 14:25:00,67.1,42.0,30.12,NNW,337,3.0,10.0,40,0.00,,,0.00,Wunderground v.1.15,2013-03-07 19:25:00,
2013-03-07 14:30:00,67.5,42.3,30.12,NW,319,4.0,4.0,40,0.00,,,0.00,Wunderground v.1.15,2013-03-07 19:30:00,
2013-03-07 14:35:00,68.0,42.1,30.12,NNW,340,3.0,7.0,39,0.00,,,0.00,Wunderground v.1.15,2013-03-07 19:35:00,
2013-03-07 14:40:00,67.3,42.1,30.12,NE,42,2.0,5.0,40,0.00,,,0.00,Wunderground v.1.15,2013-03-07 19:40:00,
2013-03-07 14:45:00,66.6,42.2,30.12,NNE,14,3.0,5.0,41,0.00,,,0.00,Wunderground v.1.15,2013-03-07 19:45:00,
2013-03-07 14:50:00,66.7,41.6,30.11,NNE,19,4.0,7.0,40,0.00,,,0.00,Wunderground v.1.15,2013-03-07 19:50:00,
2013-03-07 14:55:00,67.0,41.9,30.11,NNW,343,5.0,7.0,40,0.00,,,0.00,Wunderground v.1.15,2013-03-07 19:55:00,
2013-03-07 15:00:00,67.8,41.3,30.11,North,360,5.0,7.0,38,0.00,,,0.00,Wunderground v.1.15,2013-03-07 20:00:00,
2013-03-07 15:05:00,67.9,42.0,30.11,North,360,5.0,7.0,39,0.00,,,0.00,Wunderground v.1.15,2013-03-07 20:05:00,
2013-03-07 15:15:00,67.5,41.0,30.11,NNE,28,3.0,5.0,38,0.00,,,0.00,Wunderground v.1.15,2013-03-07 20:15:00,
2013-03-07 15:25:00,67.6,41.1,30.11,North,355,3.0,10.0,38,0.00,,,0.00,Wunderground v.1.15,2013-03-07 20:25:00,
2013-03-07 15:30:00,67.9,40.7,30.11,North,360,4.0,4.0,37,0.00,,,0.00,Wunderground v.1.15,2013-03-07 20:30:00,
2013-03-07 15:40:00,66.8,40.4,30.11,NNE,14,4.0,4.0,38,0.00,,,0.00,Wunderground v.1.15,2013-03-07 20:40:00,
2013-03-07 15:45:00,66.7,40.3,30.11,North,5,3.0,4.0,38,0.00,,,0.00,Wunderground v.1.15,2013-03-07 20:45:00,
2013-03-07 15:50:00,67.3,39.4,30.11,North,350,2.0,2.0,36,0.00,,,0.00,Wunderground v.1.15,2013-03-07 20:50:00,
2013-03-07 15:55:00,67.3,40.8,30.11,North,360,2.0,4.0,38,0.00,,,0.00,Wunderground v.1.15,2013-03-07 20:55:00,
2013-03-07 16:05:00,67.2,40.7,30.11,NNE,17,3.0,9.0,38,0.00,,,0.00,Wunderground v.1.15,2013-03-07 21:05:00,
2013-03-07 16:10:00,66.9,40.5,30.11,NNE,15,3.0,4.0,38,0.00,,,0.00,Wunderground v.1.15,2013-03-07 21:10:00,
2013-03-07 16:20:00,67.2,41.4,30.11,NNE,17,3.0,9.0,39,0.00,,,0.00,Wunderground v.1.15,2013-03-07 21:20:00,
2013-03-07 16:25:00,67.5,41.0,30.12,NNE,14,3.0,9.0,38,0.00,,,0.00,Wunderground v.1.15,2013-03-07 21:25:00,
2013-03-07 16:35:00,67.7,41.2,30.12,North,360,3.0,3.0,38,0.00,,,0.00,Wunderground v.1.15,2013-03-07 21:35:00,
2013-03-07 16:40:00,67.9,41.3,30.12,NNW,341,4.0,5.0,38,0.00,,,0.00,Wunderground v.1.15,2013-03-07 21:40:00,
2013-03-07 16:45:00,67.9,40.7,30.11,NNW,338,4.0,5.0,37,0.00,,,0.00,Wunderground v.1.15,2013-03-07 21:45:00,
2013-03-07 16:50:00,67.8,41.3,30.11,NNW,342,3.0,7.0,38,0.00,,,0.00,Wunderground v.1.15,2013-03-07 21:50:00,
2013-03-07 19:23:00,49.9,35.3,30.14,North,355,0.0,0.0,57,0.00,,,0.00,Wunderground v.1.15,2013-03-08 00:23:00,
2013-03-07 19:25:00,49.4,35.2,30.14,North,355,0.0,0.0,58,0.00,,,0.00,Wunderground v.1.15,2013-03-08 00:25:00,
2013-03-07 19:30:00,48.5,36.1,30.14,North,355,0.0,0.0,62,0.00,,,0.00,Wunderground v.1.15,2013-03-08 00:30:00,
2013-03-07 19:35:00,47.8,35.4,30.15,North,355,0.0,0.0,62,0.00,,,0.00,Wunderground v.1.15,2013-03-08 00:35:00,
2013-03-07 19:40:00,47.4,36.6,30.15,North,355,0.0,0.0,66,0.00,,,0.00,Wunderground v.1.15,2013-03-08 00:40:00,
2013-03-07 19:45:00,46.9,36.1,30.15,North,355,0.0,0.0,66,0.00,,,0.00,Wunderground v.1.15,2013-03-08 00:45:00,
2013-03-07 19:50:00,46.5,35.4,30.15,North,355,0.0,0.0,65,0.00,,,0.00,Wunderground v.1.15,2013-03-08 00:50:00,
2013-03-07 19:55:00,46.0,35.3,30.15,North,355,0.0,0.0,66,0.00,,,0.00,Wunderground v.1.15,2013-03-08 00:55:00,
2013-03-07 20:00:00,45.7,35.4,30.15,North,355,0.0,0.0,67,0.00,,,0.00,Wunderground v.1.15,2013-03-08 01:00:00,
2013-03-07 20:05:00,45.4,35.1,30.15,North,355,0.0,0.0,67,0.00,,,0.00,Wunderground v.1.15,2013-03-08 01:05:00,
2013-03-07 20:10:00,45.0,35.1,30.15,North,355,0.0,0.0,68,0.00,,,0.00,Wunderground v.1.15,2013-03-08 01:10:00,
2013-03-07 20:15:00,44.7,34.8,30.16,North,355,0.0,0.0,68,0.00,,,0.00,Wunderground v.1.15,2013-03-08 01:15:00,
2013-03-07 20:20:00,44.5,36.0,30.16,North,355,1.0,2.0,72,0.00,,,0.00,Wunderground v.1.15,2013-03-08 01:20:00,
2013-03-07 20:25:00,45.5,37.0,30.16,North,349,1.0,2.0,72,0.00,,,0.00,Wunderground v.1.15,2013-03-08 01:25:00,
2013-03-07 20:30:00,46.6,37.7,30.16,North,349,0.0,0.0,71,0.00,,,0.00,Wunderground v.1.15,2013-03-08 01:30:00,
2013-03-07 20:35:00,47.3,38.0,30.16,North,349,0.0,0.0,70,0.00,,,0.00,Wunderground v.1.15,2013-03-08 01:35:00,
2013-03-07 20:40:00,47.8,38.5,30.17,North,349,0.0,0.0,70,0.00,,,0.00,Wunderground v.1.15,2013-03-08 01:40:00,
2013-03-07 20:45:00,48.2,38.5,30.17,North,349,0.0,0.0,69,0.00,,,0.00,Wunderground v.1.15,2013-03-08 01:45:00,
2013-03-07 20:50:00,48.4,38.7,30.17,North,349,0.0,0.0,69,0.00,,,0.00,Wunderground v.1.15,2013-03-08 01:50:00,
2013-03-07 20:55:00,48.4,38.7,30.17,North,349,0.0,0.0,69,0.00,,,0.00,Wunderground v.1.15,2013-03-08 01:55:00,
2013-03-07 21:00:00,48.3,38.6,30.17,North,349,0.0,2.0,69,0.00,,,0.00,Wunderground v.1.15,2013-03-08 02:00:00,
2013-03-07 21:05:00,48.3,38.6,30.17,North,349,0.0,2.0,69,0.00,,,0.00,Wunderground v.1.15,2013-03-08 02:05:00,
2013-03-07 21:15:00,48.7,39.0,30.17,North,349,1.0,1.0,69,0.00,,,0.00,Wunderground v.1.15,2013-03-08 02:15:00,
2013-03-07 21:25:00,48.5,38.4,30.17,North,349,0.0,0.0,68,0.00,,,0.00,Wunderground v.1.15,2013-03-08 02:25:00,
2013-03-07 21:30:00,48.1,38.4,30.18,North,349,0.0,0.0,69,0.00,,,0.00,Wunderground v.1.15,2013-03-08 02:30:00,
2013-03-07 21:40:00,47.5,38.9,30.19,North,355,1.0,4.0,72,0.00,,,0.00,Wunderground v.1.15,2013-03-08 02:40:00,
2013-03-07 21:45:00,47.2,38.6,30.18,North,355,2.0,4.0,72,0.00,,,0.00,Wunderground v.1.15,2013-03-08 02:45:00,
2013-03-07 21:50:00,47.0,38.8,30.19,North,355,1.0,3.0,73,0.00,,,0.00,Wunderground v.1.15,2013-03-08 02:50:00,
2013-03-07 21:55:00,46.9,38.7,30.19,North,355,1.0,3.0,73,0.00,,,0.00,Wunderground v.1.15,2013-03-08 02:55:00,
2013-03-07 22:00:00,46.6,38.1,30.19,North,355,1.0,1.0,72,0.00,,,0.00,Wunderground v.1.15,2013-03-08 03:00:00,
2013-03-07 22:05:00,46.3,38.1,30.19,North,355,0.0,1.0,73,0.00,,,0.00,Wunderground v.1.15,2013-03-08 03:05:00,
2013-03-07 22:10:00,45.9,38.1,30.19,North,355,0.0,0.0,74,0.00,,,0.00,Wunderground v.1.15,2013-03-08 03:10:00,
2013-03-07 22:15:00,45.5,37.7,30.19,North,355,0.0,0.0,74,0.00,,,0.00,Wunderground v.1.15,2013-03-08 03:15:00,
2013-03-07 22:20:00,45.0,37.2,30.19,North,355,0.0,0.0,74,0.00,,,0.00,Wunderground v.1.15,2013-03-08 03:20:00,
2013-03-07 22:25:00,44.5,37.1,30.18,North,355,0.0,0.0,75,0.00,,,0.00,Wunderground v.1.15,2013-03-08 03:25:00,
2013-03-07 22:30:00,44.1,36.3,30.18,North,355,0.0,0.0,74,0.00,,,0.00,Wunderground v.1.15,2013-03-08 03:30:00,
2013-03-07 22:35:00,43.8,36.4,30.18,North,355,0.0,0.0,75,0.00,,,0.00,Wunderground v.1.15,2013-03-08 03:35:00,
2013-03-07 22:45:00,42.6,35.6,30.19,North,355,0.0,0.0,76,0.00,,,0.00,Wunderground v.1.15,2013-03-08 03:45:00,
2013-03-07 22:50:00,42.0,35.0,30.19,North,355,0.0,0.0,76,0.00,,,0.00,Wunderground v.1.15,2013-03-08 03:50:00,
2013-03-07 22:55:00,41.8,35.1,30.19,North,355,0.0,0.0,77,0.00,,,0.00,Wunderground v.1.15,2013-03-08 03:55:00,
2013-03-07 23:00:00,41.6,35.2,30.19,North,355,0.0,0.0,78,0.00,,,0.00,Wunderground v.1.15,2013-03-08 04:00:00,
2013-03-07 23:05:00,41.5,35.2,30.19,North,355,0.0,0.0,78,0.00,,,0.00,Wunderground v.1.15,2013-03-08 04:05:00,
2013-03-07 23:10:00,41.5,35.5,30.19,North,355,0.0,0.0,79,0.00,,,0.00,Wunderground v.1.15,2013-03-08 04:10:00,
2013-03-07 23:15:00,41.3,35.3,30.20,North,355,0.0,0.0,79,0.00,,,0.00,Wunderground v.1.15,2013-03-08 04:15:00,
2013-03-07 23:20:00,41.1,35.1,30.19,North,355,0.0,0.0,79,0.00,,,0.00,Wunderground v.1.15,2013-03-08 04:20:00,
2013-03-07 23:25:00,41.0,35.3,30.19,North,355,0.0,0.0,80,0.00,,,0.00,Wunderground v.1.15,2013-03-08 04:25:00,
2013-03-07 23:30:00,40.9,35.5,30.19,North,355,0.0,0.0,81,0.00,,,0.00,Wunderground v.1.15,2013-03-08 04:30:00,
2013-03-07 23:35:00,40.5,34.8,30.20,North,355,0.0,0.0,80,0.00,,,0.00,Wunderground v.1.15,2013-03-08 04:35:00,
2013-03-07 23:40:00,40.0,34.6,30.20,North,355,0.0,0.0,81,0.00,,,0.00,Wunderground v.1.15,2013-03-08 04:40:00,
2013-03-07 23:45:00,39.7,34.7,30.19,North,355,0.0,0.0,82,0.00,,,0.00,Wunderground v.1.15,2013-03-08 04:45:00,
2013-03-07 23:50:00,39.2,33.9,30.19,North,355,0.0,0.0,81,0.00,,,0.00,Wunderground v.1.15,2013-03-08 04:50:00,
2013-03-07 23:55:00,38.9,33.9,30.19,North,355,0.0,0.0,82,0.00,,,0.00,Wunderground v.1.15,2013-03-08 04:55:00,